www.pogodaiklimat.ru

Погода и климат >> Архив погоды >> Парагвай >> Mariscal Estigar


ПОГОДА в Mariscal Estigar

  • Прогноз погоды в Mariscal Estigar
  • Монитор погоды в Mariscal Estigar
  • Климат города

АРХИВ ПОГОДЫ в Mariscal Estigar

Время (UTC), дата Ветер
(напр.,м/с)
 
Видим.   Явления Облачность Т
(С)
Тd
(С)
f
(%)
Тe
(С)
Тes
(С)
Комфортность P
(гПа)
Po
(гПа)
Тmin
(С)
Tmax
(С)
R
(мм)
R24
(мм)
S
(см)
09 15.10 Ю 2 20 км 10/5 500 м
[Sc Ac As]
+18.2 +16.2 88 +19 +19 1014.6 994.9
12 15.10 Ю 5 20 км 10/5 600 м
[Cu Sc Ac As]
+20.0 +15.2 74 +22 +23 комфорт 1016.0 996.4 +16.8
15 15.10 Ю 2 20 км 8/4 660 м
[Cu hum Ac As]
+22.6 +14.8 61 +26 +33 жарко 1015.2 995.8
18 15.10 ЮВ 2 20 км 4/3 1050 м
[Cu hum Ac und]
+28.2 +14.9 44 +31 +41 душно 1010.3 991.3
21 15.10 В 2 20 км 3/3 1050 м
[Sc diur, vesp]
+28.8 +14.5 42 +31 +33 жарко 1006.3 987.5
00 16.10 В 2 20 км ясно +24.4 +15.2 56 +27 +27 жарко 1008.4 989.2 +30.2
06 16.10 В 3 20 км ясно +20.0 +15.2 74 +23 +23 комфорт 1007.6 988.2
09 16.10 В 4 20 км 4/0 2000 м
[Ac trans]
+20.2 +16.4 79 +23 +23 комфорт 1007.2 987.8
12 16.10 В 2 20 км 5/0 2000 м
[Ac und]
+23.8 +17.4 67 +28 +31 душно 1007.8 988.6 +19.5
15 16.10 В 2 20 км 10/3 900 м
[Sc Ac As]
+28.8 +19.7 58 +35 +39 очень
душно
1006.1 987.3
18 16.10 З 2 20 км 9/3 900 м
[Sc Ac As]
+31.8 +19.8 49 +38 +43 очень
душно
1002.0 983.4
21 16.10 СВ 2 20 км 4/3 1050 м
[Cu hum Ac trans]
+36.2 +17.5 33 +39 +41 очень
душно
981.2
00 17.10 штиль 0 20 км 4/0 2000 м
[Ac und]
+31.2 +22.0 58 +40 +40 очень
душно
1005.1 981.9 +36.2
06 17.10 СВ 2 20 км 4/0 2000 м
[Ac und]
+29.4 +21.3 62 +37 +37 очень
душно
1001.5 982.8
09 17.10 СВ 2 20 км ясно +28.0 +20.6 64 +35 +35 очень
душно
1001.8 982.8
12 17.10 С 6 20 км 6/5 1200 м
[Sc Ac trans]
+35.0 +20.5 43 +42 +43 опасность
перегрева
1003.2 984.6 +23.8
15 17.10 С 4 20 км 8/8 800 м
[Sc]
+35.0 +21.6 46 +43 +46 опасность
перегрева
1002.8 984.4
18 17.10 С 5 20 км 5/5 1200 м
[Cu Sc]
+40.6 +18.7 28 +44 +49 опасность
перегрева
998.6 980.6
21 17.10 С 6 20 км 4/4 1200 м
[Cu Sc]
+40.4 +18.6 28 +44 +44 опасность
перегрева
997.3 979.3
03 18.10 С 3 20 км ясно +33.0 +17.7 40 +37 +37 очень
душно
1000.6 982.1
06 18.10 В 3 20 км ясно +29.8 +19.3 53 +35 +35 очень
душно
1002.5 983.8
09 18.10 В 4 20 км 3/0
[Cs]
+28.6 +20.1 60 +35 +35 очень
душно
1004.0 985.2
12 18.10 СВ 5 20 км 4/0
[Cs]
+32.2 +21.5 53 +40 +43 очень
душно
1005.1 986.5 +28.4
15 18.10 СВ 5 20 км 4/3 1200 м
[Cu hum Ci fib]
+39.0 +19.7 33 +44 +51 опасность
перегрева
1003.8 985.6
18 18.10 СЗ 5 20 км 5/5 1200 м
[Cu Sc]
+41.2 +18.6 27 +45 +49 опасность
перегрева
999.7 982.7
21 18.10 С 5 20 км 4/4 1200 м
[Cu Sc]
+41.6 +18.1 26 +45 +46 опасность
перегрева
998.4 980.4
00 19.10 штиль 0 20 км зарница {гроза} 6/6 900 м
[Cb cap Ac trans]
+35.4 +21.7 45 +43 +43 опасность
перегрева
1001.3 982.8 +43.0
03 19.10 ЮВ 8 20 км гроза без осадков 8/6 900 м
[Cb cap Ac trans]
+26.2 +23.1 83 +35 +35 очень
душно
1006.3 987.3
06 19.10 ЮВ 7 20 км {ливн. осадки} 10/10 360 м
[Sc]
+25.0 +22.2 84 +32 +32 очень
душно
1007.3 988.2 1
09 19.10 В 6 20 км 10/10 360 м
[Sc]
+23.8 +22.4 92 +31 +31 очень
душно
1008.3 989.2
12 19.10 штиль 0 20 км дождь {гроза} 10/10 180 м
[Cb cap]
+21.6 +20.9 96 +27 +27 душно 1015.6 996.1 +21.0 38
15 19.10 В 4 20 км {дождь} 10/10 270 м
[St]
+22.2 +21.9 98 +29 +29 очень
душно
1015.9 996.4 10
21 19.10 ЮВ 2 20 км {дождь} 9/8 450 м
[Sc Ac As]
+23.2 +22.7 97 +32 +32 очень
душно
1011.0 991.7 0.6
00 20.10 штиль 0 20 км 10/10 300 м
[Sc]
+23.0 +21.7 92 +31 +31 очень
душно
1012.1 992.8 +37.4
09 20.10 ЮВ 3 20 км 10/10 300 м
[Sc]
+22.4 +21.8 96 +30 +30 очень
душно
1012.2 992.8
12 20.10 ЮВ 2 20 км 10/8 600 м
[Sc Ac As]
+22.4 +21.6 95 +30 +30 очень
душно
1014.3 994.9 +21.6 0.6
15 20.10 ЮВ 2 20 км 8/3 750 м
[Cu hum Ac und]
+27.6 +22.1 72 +36 +43 очень
душно
1012.8 993.8
18 20.10 З 2 20 км 4/3 900 м
[Cu med, cong Ac cuf Cc]
+31.4 +20.0 51 +38 +49 очень
душно
1009.5 990.7
21 20.10 ЮВ 2 20 км 5/3 800 м
[Cu med, cong Ac cuf Cc]
+30.0 +20.9 58 +37 +39 очень
душно
1008.0 989.2
00 21.10 ЮВ 2 20 км 3/0
[Cc]
+26.8 +22.7 78 +35 +35 очень
душно
1009.5 990.4 +34.0
06 21.10 штиль 0 20 км 8/3 800 м
[Sc Ac As]
+24.6 +22.4 88 +32 +32 очень
душно
1010.4 991.2
09 21.10 штиль 0 20 км 10/5 800 м
[Sc Ac As]
+24.6 +23.5 94 +33 +33 очень
душно
1009.2 990.0
12 21.10 В 2 20 км 8/0 2000 м
[Ac As]
+26.4 +22.8 81 +35 +38 очень
душно
1011.3 992.2 +22.4
15 21.10 В 2 20 км 8/0 2000 м
[Ac As]
+26.4 +22.8 81 +35 +44 очень
душно
1011.3 992.2 +22.4
18 21.10 штиль 0 20 км зарница 8/4 900 м
[Cb cap Ac cuf]
+31.8 +24.8 67 +45 +53 опасность
перегрева
1006.6 988.0 0.6
21 21.10 штиль 0 20 км зарница {гроза} 8/4 900 м
[Cb cap Ac cuf]
+31.6 +23.3 61 +42 +43 опасность
перегрева
1004.8 986.2
00 22.10 Ю 3 20 км 10/8 800 м
[Sc Ac As]
+27.0 +22.5 76 +35 +35 очень
душно
1006.9 987.9 +34.5

 

Местоположение метеостанции Mariscal Estigar (Парагвай): широта -22.01 долгота -60.60 высота над уровнем моря 172 м.

В архиве по умолчанию представлена погода в Mariscal Estigar за последнюю неделю. Архивные данные за месяц целиком и за предыдущие месяцы, начиная с января 2011 года, Вы можете получить, выбрав интересующий диапазон дат из раскрывающегося списка и нажав кнопку "Ввод!".


*Определитесь, кто Вы:
робот инопланетянин человек

Внимание! Время в таблицах - всемирное. Для получения местного времени необходимо прибавить поправку, которая в Mariscal Estigar равна -4 ч.

Смотрите также архив погоды в соседних городах и на ближайших метеорологических станциях:

Погода в Prats-Gil (Парагвай) (120 км)
Погода в Pozo Colorado (Парагвай) (232 км)
Погода в Puerto Casado (Парагвай) (284 км)
Погода в Las Lomitas (Аргентина) (299 км)
Погода в Villamontes (Боливия) (307 км)
Погода в Yacuiba (Боливия) (315 км)
Погода в Tartagal (Аргентина) (336 км)
Погода в Gral. Bruguez (Парагвай) (355 км)
Погода в Concepcion (Парагвай) (373 км)
Погода в Camiri (Боливия) (378 км)

Пояснения к столбцам:

Ветер - указаны скорость ветра в м/с - средняя за 10 мин, порывы в срок и между сроками (в фигурных скобках) и направление, откуда дует ветер: С - северный, СВ - северо-восточный, В - восточный, ЮВ - юго-восточный, Ю - южный, ЮЗ - юго-западный, З - западный, СЗ - северо-западный.
Видимость - горизонтальная дальность видимости в метрах или километрах. При видимости от 1 до 10 км при отсутствии осадков обычно наблюдается дымка, при ухудшении видимости до 1 км и менее - туман. В сухую погоду видимость может ухудшаться дымом, пылью или мглою.
Явления - указаны атмосферные явления, наблюдавшиеся в срок или в последний час перед сроком; фигурными скобками обозначены явления, наблюдавшиеся между сроками (за 1-3 часа до срока); квадратными скобками обозначены град или гололедные отложения с указанием их диаметра в мм.
Облачность - указаны через наклонную черту общая и нижняя облачность в баллах и высота нижней границы облаков в метрах; квадратными скобками обозначены формы облаков: Ci - перистые, Cs - перисто-слоистые, Cc - перисто-кучевые, Ac - высококучевые, As - высокослоистые, Sc - слоисто-кучевые, Ns - слоисто-дождевые, Cu - кучевые, Cb - кучево-дождевые. Подробнее классификацию облаков см. в Атласе облаков (PDF).
T - Температура воздуха - температура, измеренная на высоте 2 м над землей.
Td - Температура точки росы - температура, при понижении до которой содержащийся в воздухе водяной пар достигнет насыщения.
f - Относительная влажность воздуха - влажноcть воздуха, измеренная на высоте 2 м над землей.
Te - Эффективная температура - температура, которую ощущает одетый по сезону человек в тени. Характеристика душности погоды. При расчете учитывается влияние влажности воздуха и скорости ветра на теплоощущения человека.
Tes - Эффективная температура на солнце - температура, которую ощущает человек, с поправкой на солнечный нагрев. Характеристика знойности погоды. Зависит от высоты солнца над горизонтом, облачности и скорости ветра. Ночью, в пасмурную погоду, а также при ветре 12 м/с и более поправка равна нулю.
P - Атмосферное давление - приведенное к уровню моря атмосферное давление.
Po - Атмосферное давление - измеренное на уровне метеостанции атмосферное давление.
Tmin - Минимальная температура - минимум температуры воздуха на высоте 2 м над землей.
Tmax - Максимальная температура - максимум температуры воздуха на высоте 2 м над землей.
R - Количество осадков - Количество выпавших осадков за период времени, мм. При наведении курсора мыши на число - период времени, за который выпало указанное количество осадков.
R24 - Количество осадков - Количество выпавших осадков за 24 часа, мм.
S - Снежный покров - Высота снежного покрова, см. При наведении курсора мыши на число - состояние снежного покрова и степень покрытия местности в баллах.